{"data":{"norad_id":53045,"intl_designator":"2022-077C","name":"STARLINK-4350","alt_names":[],"object_type":"PAYLOAD","status":"ACTIVE","operator":null,"country":"US","launch_date":"2022-07-11","launch_site_code":"AFWTR","launch_vehicle":null,"mission":null,"orbit_class":"UNKNOWN","rcs_meters":null,"size_class":null,"mass_kg":null,"dimensions":null,"purposes":["comms"],"wikipedia_slug":null,"has_3d_model":false,"image_url":null,"decayed_at":null,"tle_current":{"epoch":"2026-09-19T22:38:39.899040Z","epoch_age_seconds":117521,"freshness":"FRESH","line1":"1 53045U 22077C   26262.94351735  .00000573  00000+0  20074-4 0  9991","line2":"2 53045  97.2845  78.6975 0001693  87.7216 272.4220 15.33438341230274","mean_motion":15.33438341,"eccentricity":0.0001693,"inclination_deg":97.2845,"raan_deg":78.6975,"arg_perigee_deg":87.7216,"mean_anomaly_deg":272.422,"bstar":2.0074e-5,"rev_number":23027,"period_min":93.906612447223,"perigee_km":464.40434864102,"apogee_km":466.72162545663,"semimajor_km":6843.6999870488,"source":"CELESTRAK","updated_at":"2026-09-20T09:00:40.149954Z"}}}